Location: Calvatone
(45.1167°N, 10.4333°E)
Time: 14:20:12
(UTC+00:00)

IRIDIUM 114 - Pass Details

Date: 28 January 2023
Orbit: 776 x 779 km, 86.4° (Epoch: 29 March)

Event Time Altitude Azimuth Distance (km) Brightness Sun altitude
Rises 17:04:57 0° 15° (NNE) 3,271 7.2 -8.3°
Reaches altitude 10° 17:08:53 10° 44° (NE) 2,337 6.3 -8.9°
Enters shadow 17:12:32 11° 87° (E) 2,246 6.1 -9.6°
Exits shadow 17:17:41 -2° 126° (SE) 3,437 7.3 -10.4°
Maximum altitude 18:52:31 88° 267° (W) 785 4.2 -27.0°
Sets 19:00:03 0° 180° (S) 3,244 7.5 -28.3°
